This is the latest recevied weather packets stored in our database for station/object IW1RCO-13. If no packets are shown the sender has not sent any weather packets the latest 10 day(s).
| Time | Temp. | Humidity | Pressure | Rain* | Wind** | Luminosity | Snow |
|---|---|---|---|---|---|---|---|
| 1788369570 | 23.33° C | 87% | 1016.8 hPa | - | - | - | - |
| 1788369266 | 22.78° C | 88% | 1017.7 hPa | - | - | - | - |
| 1788368969 | 23.33° C | 86% | 1016.8 hPa | - | - | - | - |
| 1788368666 | 23.33° C | 86% | 1016.6 hPa | - | - | - | - |
| 1788367769 | 23.89° C | 85% | 1017 hPa | - | - | - | - |
| 1788367472 | 23.89° C | 85% | 1016.4 hPa | - | - | - | - |
| 1788367169 | 23.33° C | 87% | 1017.5 hPa | - | - | - | - |
| 1788366872 | 22.78° C | 87% | 1016.9 hPa | - | - | - | - |
| 1788366568 | 23.89° C | 85% | 1016.7 hPa | - | - | - | - |
| 1788366272 | 23.89° C | 85% | 1018.1 hPa | - | - | - | - |
| 1788365968 | 24.44° C | 82% | 1017.4 hPa | - | - | - | - |
| 1788365671 | 25° C | 79% | 1017.6 hPa | - | - | - | - |
| 1788365368 | 26.11° C | 76% | 1016.9 hPa | - | - | - | - |
| 1788365071 | 26.11° C | 75% | 1016.4 hPa | - | - | - | - |
| 1788364768 | 27.22° C | 73% | 1018.4 hPa | - | - | - | - |
| 1788364471 | 26.67° C | 74% | 1016.9 hPa | - | - | - | - |
| 1788364167 | 26.67° C | 74% | 1016.8 hPa | - | - | - | - |
| 1788363871 | 27.22° C | 73% | 1016.1 hPa | - | - | - | - |
| 1788363567 | 27.78° C | 71% | 1017.5 hPa | - | - | - | - |
| 1788363270 | 27.22° C | 70% | 1017.2 hPa | - | - | - | - |
| 1788362967 | 27.22° C | 71% | 1017.2 hPa | - | - | - | - |
| 1788362670 | 27.78° C | 70% | 1016.8 hPa | - | - | - | - |
| 1788362367 | 27.22° C | 70% | 1017.5 hPa | - | - | - | - |
| 1788362070 | 27.22° C | 70% | 1017.4 hPa | - | - | - | - |
| 1788361766 | 28.33° C | 67% | 1017.9 hPa | - | - | - | - |
* Rain since midnight (hover to see other rain measurements)
** Current wind speed in m/s (hover to see current wind gust speed)